TimeEST,TemperatureF,Dew PointF,Humidity,Sea Level PressureIn,VisibilityMPH,Wind Direction,Wind SpeedMPH,Gust SpeedMPH,PrecipitationIn,Events,Conditions,WindDirDegrees,DateUTC
12:53 AM,30.0,25.0,82,30.25,7.0,East,3.5,-,N/A,,Clear,100,2013-02-07 05:53:00
1:53 AM,30.9,26.1,82,30.22,7.0,East,4.6,-,N/A,,Clear,80,2013-02-07 06:53:00
2:53 AM,30.9,26.1,82,30.22,7.0,Calm,Calm,-,N/A,,Partly Cloudy,0,2013-02-07 07:53:00
3:53 AM,30.9,26.1,82,30.20,7.0,NNE,3.5,-,N/A,,Mostly Cloudy,30,2013-02-07 08:53:00
4:53 AM,30.9,26.1,82,30.20,7.0,Calm,Calm,-,N/A,,Mostly Cloudy,0,2013-02-07 09:53:00
5:53 AM,32.0,26.1,79,30.21,7.0,NNE,3.5,-,N/A,,Partly Cloudy,20,2013-02-07 10:53:00
6:53 AM,30.9,25.0,79,30.19,7.0,ENE,4.6,-,N/A,,Clear,70,2013-02-07 11:53:00
7:53 AM,28.0,24.1,85,30.17,5.0,ENE,3.5,-,N/A,,Clear,70,2013-02-07 12:53:00
8:53 AM,32.0,27.0,82,30.17,6.0,NE,3.5,-,N/A,,Haze,50,2013-02-07 13:53:00
9:53 AM,36.0,28.0,73,30.15,7.0,ESE,3.5,-,N/A,,Clear,110,2013-02-07 14:53:00
10:53 AM,41.0,30.9,67,30.12,8.0,ENE,3.5,-,N/A,,Clear,70,2013-02-07 15:53:00
11:53 AM,45.0,32.0,60,30.11,9.0,Variable,3.5,-,N/A,,Clear,0,2013-02-07 16:53:00
12:53 PM,50.0,33.1,52,30.06,10.0,Variable,3.5,-,N/A,,Partly Cloudy,0,2013-02-07 17:53:00
1:53 PM,54.0,32.0,43,30.01,10.0,SSW,4.6,-,N/A,,Clear,200,2013-02-07 18:53:00
2:53 PM,57.9,33.1,39,29.98,10.0,Variable,3.5,-,N/A,,Clear,0,2013-02-07 19:53:00
3:53 PM,59.0,33.1,38,29.96,10.0,South,4.6,-,N/A,,Clear,190,2013-02-07 20:53:00
4:53 PM,59.0,34.0,39,29.94,10.0,East,4.6,-,N/A,,Clear,90,2013-02-07 21:53:00
5:53 PM,53.1,35.1,50,29.92,10.0,East,4.6,-,N/A,,Clear,100,2013-02-07 22:53:00
6:53 PM,46.9,36.0,66,29.92,10.0,East,4.6,-,N/A,,Clear,90,2013-02-07 23:53:00
7:53 PM,46.0,35.1,66,29.90,10.0,East,3.5,-,N/A,,Clear,90,2013-02-08 00:53:00
8:53 PM,44.1,34.0,68,29.88,10.0,East,4.6,-,N/A,,Clear,100,2013-02-08 01:53:00
9:53 PM,42.1,33.1,70,29.87,10.0,ESE,3.5,-,N/A,,Clear,120,2013-02-08 02:53:00
10:53 PM,52.0,35.1,53,29.83,10.0,South,5.8,-,N/A,,Mostly Cloudy,180,2013-02-08 03:53:00
11:53 PM,53.1,35.1,50,29.81,10.0,South,4.6,-,N/A,,Overcast,170,2013-02-08 04:53:00